Location: A�t �Alizem
(31.2076°N, 8.7872°W)
Time: 10:50:10
(UTC+00:00)

deb Explorer IX - Pass Details

Date: 22 June 2021
Orbit: 541 x 1234 km, 38.9° (Epoch: 29 July)

Event Time Altitude Azimuth Distance (km) Brightness Sun altitude
Exits shadow 00:34:35 18° 60° (ENE) 1,894 ? -35.4°
Drops below altitude 10° 00:36:10 10° 62° (ENE) 2,479 ? -35.4°
Sets 00:39:00 0° 65° (ENE) 3,542 ? -35.4°
